Location: Antioch Baptist Church
(32.6696°N, 85.7327°W)
Time: 12:25:56
(UTC+00:00)

ATLAS 5 CENTAUR R/B - Pass Details

Date: 14 July 2020
Orbit: 534 x 1124 km, 63.4° (Epoch: 03 August)

Event Time Altitude Azimuth Distance (km) Brightness Sun altitude
Rises 08:24:42 0° 338° (NNW) 3,391 5.7 -24.2°
Reaches altitude 10° 08:27:12 10° 346° (NNW) 2,545 5.1 -23.9°
Maximum altitude 08:32:50 40° 56° (NE) 1,402 3.8 -23.1°
Drops below altitude 10° 08:39:12 10° 124° (ESE) 2,879 5.1 -22.2°
Sets 08:42:10 0° 131° (SE) 3,885 5.7 -21.8°
